DW1009 Weather Reports


Display with metric or nautical units.
time (UTC)temp
F
wind
direction
speed
MPH
gust
MPH
rain 1hr
in
rain 24hr
in
rain mn
in
humidity
%
barometer
mb
20260906035142 73 302 1.0 4.0 0.00 0.00 0.00 85 1010.4
20260906034142 73 317 1.0 4.0 0.00 0.00 0.00 84 1010.5
20260906033141 73 340 3.0 3.0 0.00 0.00 0.00 84 1010.2
20260906032141 73 258 1.0 5.0 0.00 0.00 0.00 84 1010.1
20260906031141 73 299 3.0 4.0 0.00 0.00 0.00 85 1010.0
20260906025141 73 306 1.0 6.0 0.00 0.00 0.00 85 1010.0
20260906024141 73 349 2.0 6.0 0.00 0.00 0.00 85 1009.7
20260906023141 73 240 2.0 6.0 0.00 0.00 0.00 84 1010.0
20260906022140 74 346 1.0 4.0 0.00 0.00 0.00 85 1009.9
20260906021141 74 296 1.0 4.0 0.00 0.00 0.00 85 1010.0
20260906020140 74 321 1.0 5.0 0.00 0.00 0.00 85 1010.0
20260906015140 75 300 5.0 8.0 0.00 0.00 0.00 85 1010.0
20260906013140 75 319 1.0 8.0 0.00 0.00 0.00 83 1010.0
20260906012139 75 321 3.0 9.0 0.00 0.00 0.00 83 1010.0
20260906011139 76 340 2.0 6.0 0.00 0.00 0.00 82 1010.0
20260906005139 76 288 3.0 9.0 0.00 0.00 0.00 82 1010.0
20260906003139 76 255 3.0 9.0 0.00 0.00 0.00 81 1009.9
20260906002139 76 246 4.0 8.0 0.00 0.00 0.00 81 1010.0
20260906001138 76 281 2.0 9.0 0.00 0.00 0.00 80 1010.0
20260905234139 78 291 1.0 9.0 0.00 0.00 0.00 77 1010.1
20260905232138 78 302 3.0 10.0 0.00 0.00 0.00 76 1010.1
20260905231138 78 246 2.0 9.0 0.00 0.00 0.00 75 1010.2
20260905230138 77 284 3.0 8.0 0.00 0.00 0.00 76 1010.2
20260905224138 78 311 1.0 9.0 0.00 0.00 0.00 75 1010.2
20260905223138 79 288 3.0 8.0 0.00 0.00 0.00 73 1010.3
20260905222137 78 267 3.0 7.0 0.00 0.00 0.00 75 1010.4
20260905221137 78 290 7.0 8.0 0.00 0.00 0.00 75 1010.6
20260905215137 78 286 6.0 9.0 0.00 0.00 0.00 76 1010.7
20260905214137 78 307 2.0 8.0 0.00 0.00 0.00 77 1011.0
20260905213138 78 286 6.0 8.0 0.00 0.00 0.00 76 1011.0
20260905212136 78 268 3.0 8.0 0.00 0.00 0.00 77 1011.2
20260905211137 78 184 4.0 8.0 0.00 0.00 0.00 76 1011.2
20260905205136 78 303 3.0 7.0 0.00 0.00 0.00 75 1011.2
20260905204136 78 333 2.0 8.0 0.00 0.00 0.00 76 1011.3
20260905202136 78 282 4.0 9.0 0.00 0.00 0.00 76 1011.6
20260905201136 77 252 9.0 9.0 0.00 0.00 0.00 77 1011.6
20260905195136 77 285 4.0 8.0 0.00 0.00 0.00 78 1011.8
20260905193135 76 289 4.0 8.0 0.00 0.00 0.00 79 1012.0
20260905192135 76 223 4.0 7.0 0.00 0.00 0.00 80 1012.1
20260905191135 76 288 5.0 8.0 0.00 0.00 0.00 79 1012.2
20260905190135 76 236 3.0 7.0 0.00 0.00 0.00 79 1012.2
20260905185135 76 249 4.0 6.0 0.00 0.00 0.00 78 1012.2
20260905184135 76 300 5.0 6.0 0.00 0.00 0.00 78 1012.2
20260905183135 76 279 2.0 5.0 0.00 0.00 0.00 78 1012.4
20260905182135 76 271 3.0 8.0 0.00 0.00 0.00 77 1012.4
20260905181134 76 305 4.0 7.0 0.00 0.00 0.00 77 1012.3
20260905180134 76 259 3.0 6.0 0.00 0.00 0.00 77 1012.4
20260905175135 76 261 3.0 5.0 0.00 0.00 0.00 77 1012.3
20260905174134 75 20 2.0 5.0 0.00 0.00 0.00 77 1012.2
20260905173134 75 301 3.0 7.0 0.00 0.00 0.00 78 1012.2
20260905172134 76 263 4.0 5.0 0.00 0.00 0.00 77 1012.0
20260905165133 74 298 3.0 4.0 0.00 0.00 0.00 79 1012.0
20260905164133 75 221 3.0 4.0 0.00 0.00 0.00 79 1012.0
20260905162133 74 202 1.0 2.0 0.00 0.00 0.00 80 1011.8
20260905161133 73 79 1.0 2.0 0.00 0.00 0.00 82 1011.8
20260905160133 72 22 0.0 3.0 0.00 0.00 0.00 83 1011.8
20260905155133 72 355 0.0 2.0 0.00 0.00 0.00 84 1011.9
20260905154132 71 46 1.0 2.0 0.00 0.00 0.00 86 1011.7
20260905152132 70 28 1.0 3.0 0.00 0.00 0.00 87 1011.6
20260905151132 69 40 0.0 3.0 0.00 0.00 0.00 88 1011.3
20260905150132 69 34 1.0 3.0 0.00 0.00 0.00 88 1011.3
20260905145132 68 43 3.0 3.0 0.00 0.00 0.00 88 1011.3
20260905144132 67 71 1.0 3.0 0.00 0.00 0.00 90 1011.4
20260905143132 66 45 1.0 3.0 0.00 0.00 0.00 92 1011.2
20260905142131 65 32 0.0 2.0 0.00 0.00 0.00 93 1011.1
20260905141131 64 10 0.0 2.0 0.00 0.00 0.00 93 1011.2
20260905140131 64 10 1.0 1.0 0.00 0.00 0.00 93 1011.0
20260905135131 65 10 0.0 2.0 0.00 0.00 0.00 93 1010.8
20260905134131 65 101 0.0 3.0 0.00 0.00 0.00 93 1010.6
20260905133131 65 105 3.0 3.0 0.00 0.00 0.00 93 1010.6
20260905125131 65 66 0.0 2.0 0.00 0.00 0.00 94 1010.5
20260905124130 64 48 0.0 2.0 0.00 0.00 0.00 94 1010.5
20260905123130 64 30 0.0 2.0 0.00 0.00 0.00 94 1010.5
20260905121130 64 71 0.0 2.0 0.00 0.00 0.00 94 1010.5
20260905120130 64 89 0.0 1.0 0.00 0.00 0.00 94 1010.5
20260905115130 64 98 0.0 1.0 0.00 0.00 0.00 94 1010.5
20260905113130 64 163 0.0 0.0 0.00 0.00 0.00 93 1010.5
20260905112129 65 163 0.0 0.0 0.00 0.00 0.00 92 1010.5
20260905111130 65 163 0.0 0.0 0.00 0.00 0.00 93 1010.7
20260905110129 65 163 0.0 0.0 0.00 0.00 0.00 92 1010.7
20260905105129 65 163 0.0 0.0 0.00 0.00 0.00 91 1010.7
20260905104129 66 163 0.0 0.0 0.00 0.00 0.00 90 1010.7
20260905101129 67 163 1.0 2.0 0.00 0.00 0.00 91 1010.8
20260905095129 67 142 1.0 2.0 0.00 0.00 0.00 91 1010.8
20260905094128 67 159 1.0 2.0 0.00 0.00 0.00 92 1010.7
20260905093128 68 157 0.0 2.0 0.00 0.00 0.00 92 1010.7
20260905091128 68 156 0.0 2.0 0.00 0.00 0.00 92 1010.7
20260905090127 68 142 0.0 2.0 0.00 0.00 0.00 92 1010.7
20260905085128 68 156 1.0 2.0 0.00 0.00 0.00 91 1010.7
20260905084127 68 146 1.0 2.0 0.00 0.00 0.00 91 1010.8
20260905083127 68 173 0.0 3.0 0.00 0.00 0.00 91 1010.8
20260905082127 68 162 0.0 1.0 0.00 0.00 0.00 90 1010.9
20260905080127 69 140 1.0 3.0 0.00 0.00 0.00 89 1011.0
20260905075127 69 154 1.0 2.0 0.00 0.00 0.00 89 1011.0
20260905074127 69 159 0.0 3.0 0.00 0.00 0.00 89 1010.9
20260905073126 69 177 1.0 2.0 0.00 0.00 0.00 89 1010.9
20260905072127 69 177 0.0 2.0 0.00 0.00 0.00 89 1010.9
20260905071126 69 177 1.0 2.0 0.00 0.00 0.00 88 1010.8
20260905070126 69 177 0.0 2.0 0.00 0.00 0.00 89 1010.7
20260905065126 70 194 1.0 3.0 0.00 0.00 0.00 89 1010.7
20260905064126 70 229 3.0 4.0 0.00 0.00 0.00 89 1010.7
20260905063126 70 206 1.0 4.0 0.00 0.00 0.00 89 1010.8
20260905061126 69 175 1.0 5.0 0.00 0.00 0.00 88 1010.7
20260905060126 69 200 1.0 5.0 0.00 0.00 0.00 88 1010.7
20260905055125 70 192 2.0 4.0 0.00 0.00 0.00 89 1010.6
20260905053126 70 197 3.0 5.0 0.00 0.00 0.00 90 1010.7
20260905051125 69 221 3.0 4.0 0.00 0.00 0.00 89 1010.8
20260905050125 70 223 2.0 5.0 0.00 0.00 0.00 90 1010.8
20260905045125 70 247 1.0 5.0 0.00 0.00 0.00 90 1010.9
20260905044125 70 227 2.0 4.0 0.00 0.00 0.00 90 1010.8
20260905043124 70 196 2.0 4.0 0.00 0.00 0.00 90 1010.7
20260905042125 70 256 1.0 2.0 0.00 0.00 0.00 90 1010.7
20260905041124 70 194 0.0 4.0 0.00 0.00 0.00 89 1010.7